owner,sensor,date,latitude,longitude,vertical_datum,sea_water_practical_salinity,qcFlag 
SCCF RECON,ioos:station:SCCF:13:1,2016-08-01T00:00:00Z,26.5255,-82.0032,2.2,11.33,1111122 
SCCF RECON,ioos:station:SCCF:13:1,2016-08-01T01:00:00Z,26.5255,-82.0032,2.291,10.12,1111122 
SCCF RECON,ioos:station:SCCF:13:1,2016-08-01T02:00:00Z,26.5255,-82.0032,2.43,8.85,1111122 
SCCF RECON,ioos:station:SCCF:13:1,2016-08-01T03:00:00Z,26.5255,-82.0032,2.53,8.94,1111122 
SCCF RECON,ioos:station:SCCF:13:1,2016-08-01T04:00:00Z,26.5255,-82.0032,2.61,12.52,1111122 
SCCF RECON,ioos:station:SCCF:13:1,2016-08-01T05:00:00Z,26.5255,-82.0032,2.67,17.86,1111122 
SCCF RECON,ioos:station:SCCF:13:1,2016-08-01T06:00:00Z,26.5255,-82.0032,2.67,23.13,1111122 
SCCF RECON,ioos:station:SCCF:13:1,2016-08-01T07:00:00Z,26.5255,-82.0032,2.63,24.71,1111122 
SCCF RECON,ioos:station:SCCF:13:1,2016-08-01T08:00:00Z,26.5255,-82.0032,2.58,25.3,1111122 
SCCF RECON,ioos:station:SCCF:13:1,2016-08-01T09:00:00Z,26.5255,-82.0032,2.5,24.65,1111122 
SCCF RECON,ioos:station:SCCF:13:1,2016-08-01T10:00:00Z,26.5255,-82.0032,2.45,18.99,1111122 
SCCF RECON,ioos:station:SCCF:13:1,2016-08-01T11:00:00Z,26.5255,-82.0032,2.46,10.32,1111122 
SCCF RECON,ioos:station:SCCF:13:1,2016-08-01T12:00:00Z,26.5255,-82.0032,2.5,11.44,1111122 
SCCF RECON,ioos:station:SCCF:13:1,2016-08-01T13:00:00Z,26.5255,-82.0032,2.617,18.42,1111122 
SCCF RECON,ioos:station:SCCF:13:1,2016-08-01T14:00:00Z,26.5255,-82.0032,2.73,19.66,1111122 
SCCF RECON,ioos:station:SCCF:13:1,2016-08-01T15:00:00Z,26.5255,-82.0032,2.79,23.76,1111122 
SCCF RECON,ioos:station:SCCF:13:1,2016-08-01T16:00:00Z,26.5255,-82.0032,2.864,27.56,1111122 
SCCF RECON,ioos:station:SCCF:13:1,2016-08-01T17:00:00Z,26.5255,-82.0032,2.907,29.47,1111122 
SCCF RECON,ioos:station:SCCF:13:1,2016-08-01T18:00:00Z,26.5255,-82.0032,2.877,29.48,1111122 
SCCF RECON,ioos:station:SCCF:13:1,2016-08-01T19:00:00Z,26.5255,-82.0032,2.75,29.4,1111122 
SCCF RECON,ioos:station:SCCF:13:1,2016-08-01T20:00:00Z,26.5255,-82.0032,2.602,27.8,1111122 
SCCF RECON,ioos:station:SCCF:13:1,2016-08-01T21:00:00Z,26.5255,-82.0032,2.499,17.1,1111122 
SCCF RECON,ioos:station:SCCF:13:1,2016-08-01T22:00:00Z,26.5255,-82.0032,2.413,14.44,1111122 
SCCF RECON,ioos:station:SCCF:13:1,2016-08-01T23:00:00Z,26.5255,-82.0032,2.28,12.38,1111122 
SCCF RECON,ioos:station:SCCF:13:1,2016-08-02T00:00:00Z,26.5255,-82.0032,2.204,10.74,1111122 
SCCF RECON,ioos:station:SCCF:13:1,2016-08-02T01:00:00Z,26.5255,-82.0032,2.22,10.0,1111122 
SCCF RECON,ioos:station:SCCF:13:1,2016-08-02T02:00:00Z,26.5255,-82.0032,2.3,8.76,1111122 
SCCF RECON,ioos:station:SCCF:13:1,2016-08-02T03:00:00Z,26.5255,-82.0032,2.45,7.64,1111122 
SCCF RECON,ioos:station:SCCF:13:1,2016-08-02T04:00:00Z,26.5255,-82.0032,2.53,10.26,1111122 
SCCF RECON,ioos:station:SCCF:13:1,2016-08-02T05:00:00Z,26.5255,-82.0032,2.61,13.72,1111122 
SCCF RECON,ioos:station:SCCF:13:1,2016-08-02T06:00:00Z,26.5255,-82.0032,2.65,20.62,1111122 
SCCF RECON,ioos:station:SCCF:13:1,2016-08-02T07:00:00Z,26.5255,-82.0032,2.61,24.45,1111122 
SCCF RECON,ioos:station:SCCF:13:1,2016-08-02T08:00:00Z,26.5255,-82.0032,2.54,25.21,1111122 
SCCF RECON,ioos:station:SCCF:13:1,2016-08-02T09:00:00Z,26.5255,-82.0032,2.52,25.15,1111122 
SCCF RECON,ioos:station:SCCF:13:1,2016-08-02T10:00:00Z,26.5255,-82.0032,2.46,23.5,1111122 
SCCF RECON,ioos:station:SCCF:13:1,2016-08-02T11:00:00Z,26.5255,-82.0032,2.41,15.09,1111122 
SCCF RECON,ioos:station:SCCF:13:1,2016-08-02T12:00:00Z,26.5255,-82.0032,2.43,10.21,1111122 
SCCF RECON,ioos:station:SCCF:13:1,2016-08-02T13:00:00Z,26.5255,-82.0032,2.542,17.41,1111122 
SCCF RECON,ioos:station:SCCF:13:1,2016-08-02T14:00:00Z,26.5255,-82.0032,2.65,19.98,1111122 
SCCF RECON,ioos:station:SCCF:13:1,2016-08-02T15:00:00Z,26.5255,-82.0032,2.75,21.88,1111122 
SCCF RECON,ioos:station:SCCF:13:1,2016-08-02T16:00:00Z,26.5255,-82.0032,2.841,25.83,1111122 
SCCF RECON,ioos:station:SCCF:13:1,2016-08-02T17:00:00Z,26.5255,-82.0032,2.889,28.92,1111122 
SCCF RECON,ioos:station:SCCF:13:1,2016-08-02T18:00:00Z,26.5255,-82.0032,2.878,29.37,1111122 
SCCF RECON,ioos:station:SCCF:13:1,2016-08-02T19:00:00Z,26.5255,-82.0032,2.829,28.44,1111122 
SCCF RECON,ioos:station:SCCF:13:1,2016-08-02T20:00:00Z,26.5255,-82.0032,2.74,28.05,1111122 
SCCF RECON,ioos:station:SCCF:13:1,2016-08-02T21:00:00Z,26.5255,-82.0032,2.58,23.75,1111122 
SCCF RECON,ioos:station:SCCF:13:1,2016-08-02T22:00:00Z,26.5255,-82.0032,2.47,19.2,1111122 
SCCF RECON,ioos:station:SCCF:13:1,2016-08-02T23:00:00Z,26.5255,-82.0032,2.37,16.35,1111122 
SCCF RECON,ioos:station:SCCF:13:1,2016-08-03T00:00:00Z,26.5255,-82.0032,2.263,13.93,1111122 
SCCF RECON,ioos:station:SCCF:13:1,2016-08-03T01:00:00Z,26.5255,-82.0032,2.204,12.24,1111122 
SCCF RECON,ioos:station:SCCF:13:1,2016-08-03T02:00:00Z,26.5255,-82.0032,2.23,10.6,1111122 
SCCF RECON,ioos:station:SCCF:13:1,2016-08-03T03:00:00Z,26.5255,-82.0032,2.38,9.91,1111122 
SCCF RECON,ioos:station:SCCF:13:1,2016-08-03T04:00:00Z,26.5255,-82.0032,2.509,9.54,1111122 
SCCF RECON,ioos:station:SCCF:13:1,2016-08-03T05:00:00Z,26.5255,-82.0032,2.603,13.45,1111122 
SCCF RECON,ioos:station:SCCF:13:1,2016-08-03T06:00:00Z,26.5255,-82.0032,2.62,16.89,1111122 
SCCF RECON,ioos:station:SCCF:13:1,2016-08-03T07:00:00Z,26.5255,-82.0032,2.69,22.99,1111122 
SCCF RECON,ioos:station:SCCF:13:1,2016-08-03T08:00:00Z,26.5255,-82.0032,2.7,24.9,1111122 
SCCF RECON,ioos:station:SCCF:13:1,2016-08-03T09:00:00Z,26.5255,-82.0032,2.59,25.45,1111122 
SCCF RECON,ioos:station:SCCF:13:1,2016-08-03T10:00:00Z,26.5255,-82.0032,2.52,25.47,1111122 
SCCF RECON,ioos:station:SCCF:13:1,2016-08-03T11:00:00Z,26.5255,-82.0032,2.49,22.64,1111122 
SCCF RECON,ioos:station:SCCF:13:1,2016-08-03T12:00:00Z,26.5255,-82.0032,2.466,19.12,1111122 
SCCF RECON,ioos:station:SCCF:13:1,2016-08-03T13:00:00Z,26.5255,-82.0032,2.516,15.21,1111122 
SCCF RECON,ioos:station:SCCF:13:1,2016-08-03T14:00:00Z,26.5255,-82.0032,2.636,21.4,1111122 
SCCF RECON,ioos:station:SCCF:13:1,2016-08-03T15:00:00Z,26.5255,-82.0032,2.73,20.38,1111122 
SCCF RECON,ioos:station:SCCF:13:1,2016-08-03T16:00:00Z,26.5255,-82.0032,2.81,24.12,1111122 
SCCF RECON,ioos:station:SCCF:13:1,2016-08-03T17:00:00Z,26.5255,-82.0032,2.853,26.46,1111122 
SCCF RECON,ioos:station:SCCF:13:1,2016-08-03T18:00:00Z,26.5255,-82.0032,2.898,28.24,1111122 
SCCF RECON,ioos:station:SCCF:13:1,2016-08-03T19:00:00Z,26.5255,-82.0032,2.889,28.95,1111122 
SCCF RECON,ioos:station:SCCF:13:1,2016-08-03T20:00:00Z,26.5255,-82.0032,2.801,29.1,1111122 
SCCF RECON,ioos:station:SCCF:13:1,2016-08-03T21:00:00Z,26.5255,-82.0032,2.66,29.16,1111122 
SCCF RECON,ioos:station:SCCF:13:1,2016-08-03T22:00:00Z,26.5255,-82.0032,2.55,22.26,1111122 
SCCF RECON,ioos:station:SCCF:13:1,2016-08-03T23:00:00Z,26.5255,-82.0032,2.45,17.06,1111122 
SCCF RECON,ioos:station:SCCF:13:1,2016-08-04T00:00:00Z,26.5255,-82.0032,2.354,13.82,1111122 
SCCF RECON,ioos:station:SCCF:13:1,2016-08-04T01:00:00Z,26.5255,-82.0032,2.268,12.61,1111122 
SCCF RECON,ioos:station:SCCF:13:1,2016-08-04T02:00:00Z,26.5255,-82.0032,2.23,11.84,1111122 
SCCF RECON,ioos:station:SCCF:13:1,2016-08-04T03:00:00Z,26.5255,-82.0032,2.3,10.82,1111122 
SCCF RECON,ioos:station:SCCF:13:1,2016-08-04T04:00:00Z,26.5255,-82.0032,2.46,9.68,1111122 
SCCF RECON,ioos:station:SCCF:13:1,2016-08-04T05:00:00Z,26.5255,-82.0032,2.54,10.47,1111122 
SCCF RECON,ioos:station:SCCF:13:1,2016-08-04T06:00:00Z,26.5255,-82.0032,2.59,15.03,1111122 
SCCF RECON,ioos:station:SCCF:13:1,2016-08-04T07:00:00Z,26.5255,-82.0032,2.641,19.29,1111122 
SCCF RECON,ioos:station:SCCF:13:1,2016-08-04T08:00:00Z,26.5255,-82.0032,2.66,23.86,1111122 
SCCF RECON,ioos:station:SCCF:13:1,2016-08-04T09:00:00Z,26.5255,-82.0032,2.63,25.07,1111122 
SCCF RECON,ioos:station:SCCF:13:1,2016-08-04T10:00:00Z,26.5255,-82.0032,2.58,25.57,1111122 
SCCF RECON,ioos:station:SCCF:13:1,2016-08-04T11:00:00Z,26.5255,-82.0032,2.51,25.27,1111122 
SCCF RECON,ioos:station:SCCF:13:1,2016-08-04T12:00:00Z,26.5255,-82.0032,2.439,19.29,1111122 
SCCF RECON,ioos:station:SCCF:13:1,2016-08-04T13:00:00Z,26.5255,-82.0032,2.385,12.14,1111122 
SCCF RECON,ioos:station:SCCF:13:1,2016-08-04T14:00:00Z,26.5255,-82.0032,2.45,10.67,1111122 
SCCF RECON,ioos:station:SCCF:13:1,2016-08-04T15:00:00Z,26.5255,-82.0032,2.627,11.89,1111122 
SCCF RECON,ioos:station:SCCF:13:1,2016-08-04T16:00:00Z,26.5255,-82.0032,2.726,19.37,1111122 
SCCF RECON,ioos:station:SCCF:13:1,2016-08-04T17:00:00Z,26.5255,-82.0032,2.78,22.84,1111122 
SCCF RECON,ioos:station:SCCF:13:1,2016-08-04T18:00:00Z,26.5255,-82.0032,2.837,26.14,1111122 
SCCF RECON,ioos:station:SCCF:13:1,2016-08-04T19:00:00Z,26.5255,-82.0032,2.87,27.45,1111122 
SCCF RECON,ioos:station:SCCF:13:1,2016-08-04T20:00:00Z,26.5255,-82.0032,2.86,28.23,1111122 
SCCF RECON,ioos:station:SCCF:13:1,2016-08-04T21:00:00Z,26.5255,-82.0032,2.76,28.43,1111122 
SCCF RECON,ioos:station:SCCF:13:1,2016-08-04T22:00:00Z,26.5255,-82.0032,2.63,27.17,1111122 
SCCF RECON,ioos:station:SCCF:13:1,2016-08-04T23:00:00Z,26.5255,-82.0032,2.532,24.16,1111122 
SCCF RECON,ioos:station:SCCF:13:1,2016-08-05T00:00:00Z,26.5255,-82.0032,2.44,17.99,1111122 
SCCF RECON,ioos:station:SCCF:13:1,2016-08-05T01:00:00Z,26.5255,-82.0032,2.35,15.42,1111122 
SCCF RECON,ioos:station:SCCF:13:1,2016-08-05T02:00:00Z,26.5255,-82.0032,2.276,12.33,1111122 
SCCF RECON,ioos:station:SCCF:13:1,2016-08-05T03:00:00Z,26.5255,-82.0032,2.29,10.79,1111122 
SCCF RECON,ioos:station:SCCF:13:1,2016-08-05T04:00:00Z,26.5255,-82.0032,2.429,9.81,1111122 
SCCF RECON,ioos:station:SCCF:13:1,2016-08-05T05:00:00Z,26.5255,-82.0032,2.55,10.06,1111122 
SCCF RECON,ioos:station:SCCF:13:1,2016-08-05T06:00:00Z,26.5255,-82.0032,2.61,16.05,1111122 
SCCF RECON,ioos:station:SCCF:13:1,2016-08-05T07:00:00Z,26.5255,-82.0032,2.67,20.19,1111122 
SCCF RECON,ioos:station:SCCF:13:1,2016-08-05T08:00:00Z,26.5255,-82.0032,2.72,23.35,1111122 
SCCF RECON,ioos:station:SCCF:13:1,2016-08-05T09:00:00Z,26.5255,-82.0032,2.72,25.76,1111122 
SCCF RECON,ioos:station:SCCF:13:1,2016-08-05T10:00:00Z,26.5255,-82.0032,2.65,26.26,1111122 
SCCF RECON,ioos:station:SCCF:13:1,2016-08-05T11:00:00Z,26.5255,-82.0032,2.56,24.44,1111122 
SCCF RECON,ioos:station:SCCF:13:1,2016-08-05T12:00:00Z,26.5255,-82.0032,2.49,21.66,1111122 
SCCF RECON,ioos:station:SCCF:13:1,2016-08-05T13:00:00Z,26.5255,-82.0032,2.46,14.13,1111122 
SCCF RECON,ioos:station:SCCF:13:1,2016-08-05T14:00:00Z,26.5255,-82.0032,2.44,12.36,1111122 
SCCF RECON,ioos:station:SCCF:13:1,2016-08-05T15:00:00Z,26.5255,-82.0032,2.489,10.97,1111122 
SCCF RECON,ioos:station:SCCF:13:1,2016-08-05T16:00:00Z,26.5255,-82.0032,2.631,14.87,1111122 
SCCF RECON,ioos:station:SCCF:13:1,2016-08-05T17:00:00Z,26.5255,-82.0032,2.723,19.92,1111122 
SCCF RECON,ioos:station:SCCF:13:1,2016-08-05T18:00:00Z,26.5255,-82.0032,2.76,23.97,1111122 
SCCF RECON,ioos:station:SCCF:13:1,2016-08-05T19:00:00Z,26.5255,-82.0032,2.802,26.09,1111122 
SCCF RECON,ioos:station:SCCF:13:1,2016-08-05T20:00:00Z,26.5255,-82.0032,2.824,28.28,1111122 
SCCF RECON,ioos:station:SCCF:13:1,2016-08-05T21:00:00Z,26.5255,-82.0032,2.79,28.31,1111122 
SCCF RECON,ioos:station:SCCF:13:1,2016-08-05T22:00:00Z,26.5255,-82.0032,2.696,28.81,1111122 
SCCF RECON,ioos:station:SCCF:13:1,2016-08-05T23:00:00Z,26.5255,-82.0032,2.57,27.08,1111122 
SCCF RECON,ioos:station:SCCF:13:1,2016-08-06T00:00:00Z,26.5255,-82.0032,2.478,21.8,1111122 
SCCF RECON,ioos:station:SCCF:13:1,2016-08-06T01:00:00Z,26.5255,-82.0032,2.38,16.75,1111122 
SCCF RECON,ioos:station:SCCF:13:1,2016-08-06T02:00:00Z,26.5255,-82.0032,2.306,14.34,1111122 
SCCF RECON,ioos:station:SCCF:13:1,2016-08-06T03:00:00Z,26.5255,-82.0032,2.27,12.37,1111122 
SCCF RECON,ioos:station:SCCF:13:1,2016-08-06T04:00:00Z,26.5255,-82.0032,2.35,11.39,1111122 
SCCF RECON,ioos:station:SCCF:13:1,2016-08-06T05:00:00Z,26.5255,-82.0032,2.485,10.03,1111122 
SCCF RECON,ioos:station:SCCF:13:1,2016-08-06T06:00:00Z,26.5255,-82.0032,2.55,14.13,1111122 
SCCF RECON,ioos:station:SCCF:13:1,2016-08-06T07:00:00Z,26.5255,-82.0032,2.61,16.47,1111122 
SCCF RECON,ioos:station:SCCF:13:1,2016-08-06T08:00:00Z,26.5255,-82.0032,2.65,21.06,1111122 
SCCF RECON,ioos:station:SCCF:13:1,2016-08-06T09:00:00Z,26.5255,-82.0032,2.64,24.51,1111122 
SCCF RECON,ioos:station:SCCF:13:1,2016-08-06T10:00:00Z,26.5255,-82.0032,2.59,26.36,1111122 
SCCF RECON,ioos:station:SCCF:13:1,2016-08-06T11:00:00Z,26.5255,-82.0032,2.56,25.67,1111122 
SCCF RECON,ioos:station:SCCF:13:1,2016-08-06T12:00:00Z,26.5255,-82.0032,2.5,23.26,1111122 
SCCF RECON,ioos:station:SCCF:13:1,2016-08-06T13:00:00Z,26.5255,-82.0032,2.45,16.88,1111122 
SCCF RECON,ioos:station:SCCF:13:1,2016-08-06T14:00:00Z,26.5255,-82.0032,2.36,12.0,1111122 
SCCF RECON,ioos:station:SCCF:13:1,2016-08-06T15:00:00Z,26.5255,-82.0032,2.36,11.02,1111122 
SCCF RECON,ioos:station:SCCF:13:1,2016-08-06T16:00:00Z,26.5255,-82.0032,2.445,9.54,1111122 
SCCF RECON,ioos:station:SCCF:13:1,2016-08-06T17:00:00Z,26.5255,-82.0032,2.55,13.58,1111122 
SCCF RECON,ioos:station:SCCF:13:1,2016-08-06T18:00:00Z,26.5255,-82.0032,2.64,17.49,1111122 
SCCF RECON,ioos:station:SCCF:13:1,2016-08-06T19:00:00Z,26.5255,-82.0032,2.71,24.05,1111122 
SCCF RECON,ioos:station:SCCF:13:1,2016-08-06T20:00:00Z,26.5255,-82.0032,2.745,26.93,1111122 
SCCF RECON,ioos:station:SCCF:13:1,2016-08-06T21:00:00Z,26.5255,-82.0032,2.761,28.19,1111122 
SCCF RECON,ioos:station:SCCF:13:1,2016-08-06T22:00:00Z,26.5255,-82.0032,2.722,27.7,1111122 
SCCF RECON,ioos:station:SCCF:13:1,2016-08-06T23:00:00Z,26.5255,-82.0032,2.608,28.09,1111122 
SCCF RECON,ioos:station:SCCF:13:1,2016-08-07T00:00:00Z,26.5255,-82.0032,2.49,25.27,1111122 
SCCF RECON,ioos:station:SCCF:13:1,2016-08-07T01:00:00Z,26.5255,-82.0032,2.42,19.9,1111122 
SCCF RECON,ioos:station:SCCF:13:1,2016-08-07T02:00:00Z,26.5255,-82.0032,2.35,14.17,1111122 
SCCF RECON,ioos:station:SCCF:13:1,2016-08-07T03:00:00Z,26.5255,-82.0032,2.306,11.59,1111122 
SCCF RECON,ioos:station:SCCF:13:1,2016-08-07T04:00:00Z,26.5255,-82.0032,2.32,10.27,1111122 
SCCF RECON,ioos:station:SCCF:13:1,2016-08-07T05:00:00Z,26.5255,-82.0032,2.42,9.66,1111122 
SCCF RECON,ioos:station:SCCF:13:1,2016-08-07T06:00:00Z,26.5255,-82.0032,2.54,10.75,1111122 
SCCF RECON,ioos:station:SCCF:13:1,2016-08-07T07:00:00Z,26.5255,-82.0032,2.6,17.05,1111122 
SCCF RECON,ioos:station:SCCF:13:1,2016-08-07T08:00:00Z,26.5255,-82.0032,2.64,20.17,1111122 
SCCF RECON,ioos:station:SCCF:13:1,2016-08-07T09:00:00Z,26.5255,-82.0032,2.68,22.99,1111122 
SCCF RECON,ioos:station:SCCF:13:1,2016-08-07T10:00:00Z,26.5255,-82.0032,2.72,26.27,1111122 
SCCF RECON,ioos:station:SCCF:13:1,2016-08-07T11:00:00Z,26.5255,-82.0032,2.719,26.82,1111122 
SCCF RECON,ioos:station:SCCF:13:1,2016-08-07T12:00:00Z,26.5255,-82.0032,2.609,27.01,1111122 
SCCF RECON,ioos:station:SCCF:13:1,2016-08-07T13:00:00Z,26.5255,-82.0032,2.5,23.43,1111122 
SCCF RECON,ioos:station:SCCF:13:1,2016-08-07T14:00:00Z,26.5255,-82.0032,2.45,15.95,1111122 
SCCF RECON,ioos:station:SCCF:13:1,2016-08-07T15:00:00Z,26.5255,-82.0032,2.42,13.34,1111122 
SCCF RECON,ioos:station:SCCF:13:1,2016-08-07T16:00:00Z,26.5255,-82.0032,2.44,11.93,1111122 
SCCF RECON,ioos:station:SCCF:13:1,2016-08-07T17:00:00Z,26.5255,-82.0032,2.499,10.67,1111122 
SCCF RECON,ioos:station:SCCF:13:1,2016-08-07T18:00:00Z,26.5255,-82.0032,2.57,13.23,1111122 
SCCF RECON,ioos:station:SCCF:13:1,2016-08-07T19:00:00Z,26.5255,-82.0032,2.659,17.27,1111122 
SCCF RECON,ioos:station:SCCF:13:1,2016-08-07T20:00:00Z,26.5255,-82.0032,2.69,21.33,1111122 
SCCF RECON,ioos:station:SCCF:13:1,2016-08-07T21:00:00Z,26.5255,-82.0032,2.704,25.04,1111122 
SCCF RECON,ioos:station:SCCF:13:1,2016-08-07T22:00:00Z,26.5255,-82.0032,2.68,25.65,1111122 
SCCF RECON,ioos:station:SCCF:13:1,2016-08-07T23:00:00Z,26.5255,-82.0032,2.65,26.19,1111122 
SCCF RECON,ioos:station:SCCF:13:1,2016-08-08T00:00:00Z,26.5255,-82.0032,2.57,25.75,1111122 
SCCF RECON,ioos:station:SCCF:13:1,2016-08-08T01:00:00Z,26.5255,-82.0032,2.47,16.64,1111122 
SCCF RECON,ioos:station:SCCF:13:1,2016-08-08T02:00:00Z,26.5255,-82.0032,2.387,11.92,1111122 
SCCF RECON,ioos:station:SCCF:13:1,2016-08-08T03:00:00Z,26.5255,-82.0032,2.33,10.48,1111122 
SCCF RECON,ioos:station:SCCF:13:1,2016-08-08T04:00:00Z,26.5255,-82.0032,2.31,9.13,1111122 
SCCF RECON,ioos:station:SCCF:13:1,2016-08-08T05:00:00Z,26.5255,-82.0032,2.37,8.21,1111122 
SCCF RECON,ioos:station:SCCF:13:1,2016-08-08T06:00:00Z,26.5255,-82.0032,2.48,8.32,1111122 
SCCF RECON,ioos:station:SCCF:13:1,2016-08-08T07:00:00Z,26.5255,-82.0032,2.55,14.58,1111122 
SCCF RECON,ioos:station:SCCF:13:1,2016-08-08T08:00:00Z,26.5255,-82.0032,2.594,16.49,1111122 
SCCF RECON,ioos:station:SCCF:13:1,2016-08-08T09:00:00Z,26.5255,-82.0032,2.64,21.03,1111122 
SCCF RECON,ioos:station:SCCF:13:1,2016-08-08T10:00:00Z,26.5255,-82.0032,2.68,24.15,1111122 
SCCF RECON,ioos:station:SCCF:13:1,2016-08-08T11:00:00Z,26.5255,-82.0032,2.69,26.43,1111122 
SCCF RECON,ioos:station:SCCF:13:1,2016-08-08T12:00:00Z,26.5255,-82.0032,2.66,27.24,1111122 
SCCF RECON,ioos:station:SCCF:13:1,2016-08-08T13:00:00Z,26.5255,-82.0032,2.576,27.15,1111122 
SCCF RECON,ioos:station:SCCF:13:1,2016-08-08T14:00:00Z,26.5255,-82.0032,2.49,23.71,1111122 
SCCF RECON,ioos:station:SCCF:13:1,2016-08-08T15:00:00Z,26.5255,-82.0032,2.44,14.62,1111122 
SCCF RECON,ioos:station:SCCF:13:1,2016-08-08T16:00:00Z,26.5255,-82.0032,2.41,11.21,1111122 
SCCF RECON,ioos:station:SCCF:13:1,2016-08-08T17:00:00Z,26.5255,-82.0032,2.408,10.11,1111122 
SCCF RECON,ioos:station:SCCF:13:1,2016-08-08T18:00:00Z,26.5255,-82.0032,2.439,9.56,1111122 
SCCF RECON,ioos:station:SCCF:13:1,2016-08-08T19:00:00Z,26.5255,-82.0032,2.48,10.76,1111122 
SCCF RECON,ioos:station:SCCF:13:1,2016-08-08T20:00:00Z,26.5255,-82.0032,2.543,19.3,1111122 
SCCF RECON,ioos:station:SCCF:13:1,2016-08-08T21:00:00Z,26.5255,-82.0032,2.59,20.62,1111122 
SCCF RECON,ioos:station:SCCF:13:1,2016-08-08T22:00:00Z,26.5255,-82.0032,2.6,21.96,1111122 
SCCF RECON,ioos:station:SCCF:13:1,2016-08-08T23:00:00Z,26.5255,-82.0032,2.59,21.68,1111122 
SCCF RECON,ioos:station:SCCF:13:1,2016-08-09T00:00:00Z,26.5255,-82.0032,2.55,24.03,1111122 
SCCF RECON,ioos:station:SCCF:13:1,2016-08-09T01:00:00Z,26.5255,-82.0032,2.48,22.57,1111122 
SCCF RECON,ioos:station:SCCF:13:1,2016-08-09T02:00:00Z,26.5255,-82.0032,2.41,17.23,1111122 
SCCF RECON,ioos:station:SCCF:13:1,2016-08-09T03:00:00Z,26.5255,-82.0032,2.354,9.73,1111122 
SCCF RECON,ioos:station:SCCF:13:1,2016-08-09T04:00:00Z,26.5255,-82.0032,2.36,9.35,1111122 
SCCF RECON,ioos:station:SCCF:13:1,2016-08-09T05:00:00Z,26.5255,-82.0032,2.38,7.89,1111122 
SCCF RECON,ioos:station:SCCF:13:1,2016-08-09T06:00:00Z,26.5255,-82.0032,2.43,8.1,1111122 
SCCF RECON,ioos:station:SCCF:13:1,2016-08-09T07:00:00Z,26.5255,-82.0032,2.51,17.12,1111122 
SCCF RECON,ioos:station:SCCF:13:1,2016-08-09T08:00:00Z,26.5255,-82.0032,2.57,18.68,1111122 
SCCF RECON,ioos:station:SCCF:13:1,2016-08-09T09:00:00Z,26.5255,-82.0032,2.66,23.35,1111122 
SCCF RECON,ioos:station:SCCF:13:1,2016-08-09T10:00:00Z,26.5255,-82.0032,2.72,25.94,1111122 
SCCF RECON,ioos:station:SCCF:13:1,2016-08-09T11:00:00Z,26.5255,-82.0032,2.748,27.37,1111122 
SCCF RECON,ioos:station:SCCF:13:1,2016-08-09T12:00:00Z,26.5255,-82.0032,2.73,27.13,1111122 
SCCF RECON,ioos:station:SCCF:13:1,2016-08-09T13:00:00Z,26.5255,-82.0032,2.68,28.34,1111122 
SCCF RECON,ioos:station:SCCF:13:1,2016-08-09T14:00:00Z,26.5255,-82.0032,2.6,27.9,1111122 
SCCF RECON,ioos:station:SCCF:13:1,2016-08-09T15:00:00Z,26.5255,-82.0032,2.52,24.24,1111122 
SCCF RECON,ioos:station:SCCF:13:1,2016-08-09T16:00:00Z,26.5255,-82.0032,2.47,15.43,1111122 
SCCF RECON,ioos:station:SCCF:13:1,2016-08-09T17:00:00Z,26.5255,-82.0032,2.45,13.44,1111122 
SCCF RECON,ioos:station:SCCF:13:1,2016-08-09T18:00:00Z,26.5255,-82.0032,2.45,12.01,1111122 
SCCF RECON,ioos:station:SCCF:13:1,2016-08-09T19:00:00Z,26.5255,-82.0032,2.476,12.38,1111122 
SCCF RECON,ioos:station:SCCF:13:1,2016-08-09T20:00:00Z,26.5255,-82.0032,2.53,15.49,1111122 
SCCF RECON,ioos:station:SCCF:13:1,2016-08-09T21:00:00Z,26.5255,-82.0032,2.57,20.41,1111122 
SCCF RECON,ioos:station:SCCF:13:1,2016-08-09T22:00:00Z,26.5255,-82.0032,2.601,19.26,1111122 
SCCF RECON,ioos:station:SCCF:13:1,2016-08-09T23:00:00Z,26.5255,-82.0032,2.624,20.53,1111122 
SCCF RECON,ioos:station:SCCF:13:1,2016-08-10T00:00:00Z,26.5255,-82.0032,2.62,24.19,1111122 
SCCF RECON,ioos:station:SCCF:13:1,2016-08-10T01:00:00Z,26.5255,-82.0032,2.57,24.01,1111122 
SCCF RECON,ioos:station:SCCF:13:1,2016-08-10T02:00:00Z,26.5255,-82.0032,2.47,17.19,1111122 
SCCF RECON,ioos:station:SCCF:13:1,2016-08-10T03:00:00Z,26.5255,-82.0032,2.41,11.33,1111122 
SCCF RECON,ioos:station:SCCF:13:1,2016-08-10T04:00:00Z,26.5255,-82.0032,2.4,9.76,1111122 
SCCF RECON,ioos:station:SCCF:13:1,2016-08-10T05:00:00Z,26.5255,-82.0032,2.37,8.94,1111122 
SCCF RECON,ioos:station:SCCF:13:1,2016-08-10T06:00:00Z,26.5255,-82.0032,2.42,7.72,1111122 
SCCF RECON,ioos:station:SCCF:13:1,2016-08-10T07:00:00Z,26.5255,-82.0032,2.62,12.67,1111122 
SCCF RECON,ioos:station:SCCF:13:1,2016-08-10T08:00:00Z,26.5255,-82.0032,2.5,18.42,1111122 
SCCF RECON,ioos:station:SCCF:13:1,2016-08-10T09:00:00Z,26.5255,-82.0032,2.47,18.75,1111122 
SCCF RECON,ioos:station:SCCF:13:1,2016-08-10T10:00:00Z,26.5255,-82.0032,2.66,16.92,1111122 
SCCF RECON,ioos:station:SCCF:13:1,2016-08-10T11:00:00Z,26.5255,-82.0032,2.72,23.78,1111122 
SCCF RECON,ioos:station:SCCF:13:1,2016-08-10T12:00:00Z,26.5255,-82.0032,2.75,26.85,1111122 
SCCF RECON,ioos:station:SCCF:13:1,2016-08-10T13:00:00Z,26.5255,-82.0032,2.71,27.36,1111122 
SCCF RECON,ioos:station:SCCF:13:1,2016-08-10T14:00:00Z,26.5255,-82.0032,2.623,27.94,1111122 
SCCF RECON,ioos:station:SCCF:13:1,2016-08-10T15:00:00Z,26.5255,-82.0032,2.56,26.72,1111122 
SCCF RECON,ioos:station:SCCF:13:1,2016-08-10T16:00:00Z,26.5255,-82.0032,2.47,19.61,1111122 
SCCF RECON,ioos:station:SCCF:13:1,2016-08-10T17:00:00Z,26.5255,-82.0032,2.39,12.04,1111122 
SCCF RECON,ioos:station:SCCF:13:1,2016-08-10T18:00:00Z,26.5255,-82.0032,2.339,9.85,1111122 
SCCF RECON,ioos:station:SCCF:13:1,2016-08-10T19:00:00Z,26.5255,-82.0032,2.33,8.15,1111122 
SCCF RECON,ioos:station:SCCF:13:1,2016-08-10T20:00:00Z,26.5255,-82.0032,2.359,7.68,1111122 
SCCF RECON,ioos:station:SCCF:13:1,2016-08-10T21:00:00Z,26.5255,-82.0032,2.4,7.8,1111122 
SCCF RECON,ioos:station:SCCF:13:1,2016-08-10T22:00:00Z,26.5255,-82.0032,2.45,14.38,1111122 
SCCF RECON,ioos:station:SCCF:13:1,2016-08-10T23:00:00Z,26.5255,-82.0032,2.5,18.68,1111122 
SCCF RECON,ioos:station:SCCF:13:1,2016-08-11T00:00:00Z,26.5255,-82.0032,2.538,15.47,1111122 
SCCF RECON,ioos:station:SCCF:13:1,2016-08-11T01:00:00Z,26.5255,-82.0032,2.531,22.15,1111122 
SCCF RECON,ioos:station:SCCF:13:1,2016-08-11T02:00:00Z,26.5255,-82.0032,2.5,22.25,1111122 
SCCF RECON,ioos:station:SCCF:13:1,2016-08-11T03:00:00Z,26.5255,-82.0032,2.41,18.69,1111122 
SCCF RECON,ioos:station:SCCF:13:1,2016-08-11T04:00:00Z,26.5255,-82.0032,2.38,11.61,1111122 
SCCF RECON,ioos:station:SCCF:13:1,2016-08-11T05:00:00Z,26.5255,-82.0032,2.37,8.63,1111122 
SCCF RECON,ioos:station:SCCF:13:1,2016-08-11T06:00:00Z,26.5255,-82.0032,2.35,7.66,1111122 
SCCF RECON,ioos:station:SCCF:13:1,2016-08-11T07:00:00Z,26.5255,-82.0032,2.39,6.53,1111122 
SCCF RECON,ioos:station:SCCF:13:1,2016-08-11T08:00:00Z,26.5255,-82.0032,2.41,13.07,1111122 
SCCF RECON,ioos:station:SCCF:13:1,2016-08-11T09:00:00Z,26.5255,-82.0032,2.45,13.78,1111122 
SCCF RECON,ioos:station:SCCF:13:1,2016-08-11T10:00:00Z,26.5255,-82.0032,2.51,21.26,1111122 
SCCF RECON,ioos:station:SCCF:13:1,2016-08-11T11:00:00Z,26.5255,-82.0032,2.536,22.74,1111122 
SCCF RECON,ioos:station:SCCF:13:1,2016-08-11T12:00:00Z,26.5255,-82.0032,2.57,23.45,1111122 
SCCF RECON,ioos:station:SCCF:13:1,2016-08-11T13:00:00Z,26.5255,-82.0032,2.57,24.98,1111122 
SCCF RECON,ioos:station:SCCF:13:1,2016-08-11T14:00:00Z,26.5255,-82.0032,2.538,25.34,1111122 
SCCF RECON,ioos:station:SCCF:13:1,2016-08-11T15:00:00Z,26.5255,-82.0032,2.46,24.73,1111122 
SCCF RECON,ioos:station:SCCF:13:1,2016-08-11T16:00:00Z,26.5255,-82.0032,2.386,18.3,1111122 
SCCF RECON,ioos:station:SCCF:13:1,2016-08-11T17:00:00Z,26.5255,-82.0032,2.304,9.13,1111122 
SCCF RECON,ioos:station:SCCF:13:1,2016-08-11T18:00:00Z,26.5255,-82.0032,2.259,7.36,1111122 